Location: Nashville
(36.1660°N, 86.7840°W)
Time: 19:36:44
(UTC-05:00)

SO-50 - Pass Details

Date: 21 May 2022
Orbit: 586 x 697 km, 64.6° (Epoch: 29 June)

Event Time Altitude Azimuth Distance (km) Brightness Sun altitude
Rises 22:01:08 0° 312° (NW) 3,079 ? -21.6°
Reaches altitude 10° 22:04:06 10° 294° (WNW) 2,155 ? -22.0°
Maximum altitude 22:07:27 19° 251° (WSW) 1,641 ? -22.5°
Enters shadow 22:09:48 14° 218° (SW) 1,897 ? -22.8°
